Litchfield, IL

1:47 AM CST on February 23, 2017 (GMT -0600)
Litchfield

Weather History for K3LF - February, 2013

Change the Weather History Date:

Thursday, February 28, 2013

  Actual Average (KALN) Record (KALN)
Temperature  
Mean Temperature 31 °F -  
Max Temperature 32 °F 44 °F 71 °F (2016)
Min Temperature 30 °F 29 °F 11 °F (2015)
Degree Days  
Heating Degree Days 34    
Moisture  
Dew Point 30 °F    
Average Humidity 92    
Maximum Humidity 96    
Minimum Humidity 88    
Precipitation  
Precipitation 0.00 in - - ()
Sea Level Pressure  
Sea Level Pressure 29.98 in    
Wind  
Wind Speed 13 mph (WNW)    
Max Wind Speed 17 mph    
Max Gust Speed 20 mph    
Visibility 6 miles    
Events Snow    
Averages and records for this station are not official NWS values.
T = Trace of Precipitation, MM = Missing Value Source: NWS Daily Summary

Daily Weather History Graph

Daily Weather History Graph

Search for Another Location

Airport or City:

Trip Planner

Search our weather history database for the weather conditions in past years. The results will help you decide how hot, cold, wet, or windy it might be!

Date:

Astronomy

Feb. 28, 2013 Rise Set
Actual Time 6:32 AM CST 5:50 PM CST
Civil Twilight 6:05 AM CST 6:17 PM CST
Nautical Twilight 5:34 AM CST 6:48 PM CST
Astronomical Twilight 5:03 AM CST 7:19 PM CST
Moon 9:15 PM CST (2/28) 7:43 AM CST (2/28)
Length of Visible Light 12h 11m
Length of Day
11h 18m
Waning Gibbous, 90% of the Moon is Illuminated
Feb 28
Waning Gibbous
Mar 4
Last Quarter
Mar 11
New
Mar 19
First Quarter
Mar 27
Full

Hourly Weather History & Observations

Time (CST) Temp. Windchill Dew Point Humidity Pressure Visibility Wind Dir Wind Speed Gust Speed Precip Events Conditions
12:15 AM 30.9 °F 19.8 °F 29.1 °F 93% 29.84 in 7.0 mi West 16.1 mph - N/A   Overcast
12:35 AM 30.9 °F 20.2 °F 28.9 °F 92% 29.84 in 7.0 mi West 15.0 mph - N/A   Overcast
12:55 AM 30.9 °F 20.2 °F 28.9 °F 92% 29.84 in 7.0 mi West 15.0 mph - N/A   Overcast
1:15 AM 30.9 °F 19.4 °F 28.9 °F 92% 29.85 in 7.0 mi WNW 17.3 mph - N/A   Overcast
1:35 AM 30.9 °F 19.8 °F 28.9 °F 92% 29.85 in 7.0 mi West 16.1 mph - N/A   Overcast
1:55 AM 30.9 °F 19.8 °F 28.9 °F 92% 29.85 in 7.0 mi West 16.1 mph - N/A   Overcast
2:15 AM 30.9 °F 20.2 °F 28.9 °F 92% 29.85 in 7.0 mi West 15.0 mph - N/A   Overcast
2:35 AM 30.9 °F 20.7 °F 28.9 °F 92% 29.85 in 7.0 mi WNW 13.8 mph 18.4 mph N/A   Overcast
2:55 AM 31.1 °F 20.5 °F 28.9 °F 92% 29.85 in 7.0 mi WNW 15.0 mph - N/A   Overcast
3:15 AM 31.1 °F 20.9 °F 28.9 °F 92% 29.86 in 7.0 mi WNW 13.8 mph - N/A Snow Light Snow
3:35 AM 31.1 °F 21.4 °F 28.9 °F 92% 29.86 in 7.0 mi WNW 12.7 mph - N/A   Overcast
3:55 AM 31.1 °F 21.4 °F 28.9 °F 92% 29.87 in 7.0 mi WNW 12.7 mph 19.6 mph N/A   Overcast
4:15 AM 31.1 °F 21.4 °F 29.1 °F 92% 29.87 in 7.0 mi WNW 12.7 mph - N/A   Overcast
4:35 AM 31.1 °F 20.9 °F 29.1 °F 92% 29.88 in 7.0 mi WNW 13.8 mph - N/A   Overcast
4:55 AM 31.1 °F 20.5 °F 29.3 °F 93% 29.89 in 7.0 mi WNW 15.0 mph - N/A   Overcast
5:15 AM 31.1 °F 20.9 °F 29.3 °F 93% 29.90 in 7.0 mi WNW 13.8 mph - N/A   Overcast
5:55 AM 31.5 °F 21.4 °F 29.3 °F 92% 29.91 in 7.0 mi WNW 13.8 mph - N/A   Overcast
6:35 AM 31.6 °F 22.6 °F 29.8 °F 93% 29.92 in 7.0 mi West 11.5 mph - N/A   Overcast
6:55 AM 31.6 °F 23.1 °F 29.8 °F 93% 29.93 in 5.0 mi WNW 10.4 mph - N/A   Overcast
7:15 AM 31.6 °F 22.6 °F 29.8 °F 93% 29.93 in 5.0 mi West 11.5 mph - N/A   Overcast
7:35 AM 31.6 °F 22.1 °F 29.8 °F 93% 29.95 in 5.0 mi West 12.7 mph - N/A   Overcast
7:55 AM 31.6 °F 22.1 °F 30.0 °F 94% 29.95 in 5.0 mi WNW 12.7 mph - N/A   Overcast
8:15 AM 31.6 °F 22.1 °F 30.0 °F 94% 29.95 in 5.0 mi WNW 12.7 mph - N/A   Overcast
8:35 AM 31.8 °F 21.4 °F 30.0 °F 93% 29.96 in 3.0 mi WNW 15.0 mph - N/A   Overcast
8:55 AM 31.8 °F 23.3 °F 30.2 °F 94% 29.96 in 3.0 mi WNW 10.4 mph - N/A   Overcast
9:15 AM 31.8 °F 22.3 °F 29.8 °F 92% 29.97 in 4.0 mi WNW 12.7 mph - N/A   Overcast
9:35 AM 31.8 °F 21.8 °F 29.8 °F 92% 29.98 in 5.0 mi WNW 13.8 mph 17.3 mph N/A   Overcast
9:55 AM 32.0 °F 23.0 °F 29.8 °F 92% 29.98 in 5.0 mi WNW 11.5 mph - N/A   Overcast
10:15 AM 32.0 °F 22.1 °F 30.0 °F 92% 29.98 in 7.0 mi NW 13.8 mph 18.4 mph N/A   Overcast
10:35 AM 32.0 °F 23.0 °F 29.8 °F 92% 29.99 in 5.0 mi WNW 11.5 mph - N/A   Overcast
10:55 AM 32.0 °F 23.0 °F 29.8 °F 92% 30.00 in 5.0 mi WNW 11.5 mph - N/A   Overcast
11:15 AM 32.0 °F 23.6 °F 30.0 °F 92% 30.00 in 5.0 mi WNW 10.4 mph - N/A   Overcast
11:35 AM 32.0 °F 22.5 °F 30.0 °F 92% 30.01 in 4.0 mi WNW 12.7 mph - N/A   Overcast
11:55 AM 32.0 °F 22.1 °F 30.0 °F 92% 30.01 in 4.0 mi WNW 13.8 mph - N/A   Overcast
12:35 PM 32.0 °F 22.5 °F 29.7 °F 91% 30.01 in 5.0 mi WNW 12.7 mph - N/A   Overcast
12:55 PM 32.0 °F 23.0 °F 29.3 °F 90% 30.01 in 7.0 mi WNW 11.5 mph - N/A   Overcast
1:15 PM 32.0 °F 23.0 °F 29.3 °F 90% 30.01 in 5.0 mi WNW 11.5 mph - N/A   Overcast
1:35 PM 32.0 °F 22.5 °F 29.3 °F 90% 30.01 in 7.0 mi WNW 12.7 mph - N/A   Overcast
1:55 PM 32.2 °F 22.3 °F 29.7 °F 90% 30.01 in 7.0 mi WNW 13.8 mph - N/A   Overcast
2:15 PM 32.2 °F 24.4 °F 29.5 °F 90% 30.01 in 7.0 mi WNW 9.2 mph - N/A   Overcast
2:35 PM 32.5 °F 23.2 °F 29.3 °F 88% 30.01 in 7.0 mi NW 12.7 mph - N/A   Overcast
2:55 PM 32.5 °F 22.7 °F 29.3 °F 88% 30.03 in 7.0 mi WNW 13.8 mph 19.6 mph N/A   Overcast
3:15 PM 32.2 °F 23.8 °F 29.3 °F 89% 30.03 in 7.0 mi WNW 10.4 mph 18.4 mph N/A   Overcast
3:35 PM 32.2 °F 24.4 °F 29.3 °F 89% 30.04 in 7.0 mi NW 9.2 mph - N/A   Overcast
3:55 PM 32.2 °F 22.3 °F 29.3 °F 89% 30.04 in 7.0 mi WNW 13.8 mph - N/A   Overcast
4:15 PM 32.0 °F 23.0 °F 29.3 °F 90% 30.04 in 7.0 mi WNW 11.5 mph - N/A   Overcast
4:35 PM 32.0 °F 22.1 °F 29.3 °F 90% 30.05 in 7.0 mi WNW 13.8 mph - N/A   Overcast
4:55 PM 32.0 °F 23.0 °F 29.3 °F 90% 30.05 in 7.0 mi WNW 11.5 mph - N/A   Overcast
5:15 PM 32.0 °F 23.0 °F 29.3 °F 90% 30.06 in 5.0 mi NW 11.5 mph 16.1 mph N/A   Overcast
5:35 PM 32.0 °F 23.6 °F 29.5 °F 90% 30.06 in 5.0 mi NW 10.4 mph - N/A   Overcast
5:55 PM 32.0 °F 24.8 °F 30.0 °F 92% 30.06 in 5.0 mi NW 8.1 mph - N/A   Mostly Cloudy
6:15 PM 32.0 °F 24.2 °F 29.8 °F 92% 30.06 in 7.0 mi NW 9.2 mph - N/A   Mostly Cloudy
6:35 PM 32.0 °F 23.6 °F 29.8 °F 92% 30.06 in 7.0 mi NW 10.4 mph - N/A   Overcast
6:55 PM 32.0 °F 24.2 °F 29.8 °F 92% 30.06 in 7.0 mi WNW 9.2 mph - N/A   Overcast
7:15 PM 32.0 °F 24.8 °F 29.8 °F 92% 30.07 in 7.0 mi WNW 8.1 mph - N/A   Overcast
7:35 PM 31.8 °F 23.9 °F 29.8 °F 92% 30.07 in 5.0 mi WNW 9.2 mph - N/A Snow Light Snow
7:55 PM 31.6 °F 24.4 °F 29.7 °F 92% 30.06 in 5.0 mi WNW 8.1 mph - N/A Snow Light Snow
8:15 PM 31.6 °F 23.1 °F 29.8 °F 93% 30.06 in 5.0 mi WNW 10.4 mph - N/A Snow Light Snow
8:35 PM 31.6 °F 23.1 °F 30.0 °F 94% 30.07 in 5.0 mi West 10.4 mph - N/A   Overcast
8:55 PM 31.5 °F 23.5 °F 30.0 °F 94% 30.07 in 5.0 mi WNW 9.2 mph - N/A   Overcast
9:15 PM 31.5 °F 23.5 °F 30.0 °F 94% 30.07 in 5.0 mi WNW 9.2 mph - N/A   Overcast
9:35 PM 31.5 °F 23.5 °F 30.0 °F 94% 30.07 in 5.0 mi WNW 9.2 mph - N/A   Overcast
9:55 PM 31.5 °F 23.5 °F 30.0 °F 94% 30.08 in 5.0 mi WNW 9.2 mph - N/A   Overcast
10:15 PM 31.1 °F 22.4 °F 29.8 °F 95% 30.07 in 5.0 mi NW 10.4 mph - N/A Snow Light Snow
10:35 PM 31.1 °F 23.1 °F 29.8 °F 95% 30.07 in 4.0 mi NW 9.2 mph - N/A Snow Light Snow
10:55 PM 31.1 °F 23.1 °F 29.8 °F 95% 30.07 in 5.0 mi NW 9.2 mph - N/A   Overcast
11:15 PM 31.1 °F 23.1 °F 30.0 °F 96% 30.06 in 5.0 mi NW 9.2 mph - N/A Snow Light Snow
11:35 PM 31.1 °F 23.1 °F 30.2 °F 96% 30.06 in 5.0 mi NW 9.2 mph - N/A   Overcast
11:55 PM 31.1 °F 23.1 °F 30.0 °F 96% 30.06 in 4.0 mi NW 9.2 mph - N/A Snow Light Snow